Location: Il Ritiro
(43.4167°N, 13.1333°E)
Time: 06:23:05
(UTC+00:00)

Cosmos 1844 - Pass Details

Date: 05 July 2020
Orbit: 822 x 868 km, 70.9° (Epoch: 05 August)

Event Time Altitude Azimuth Distance (km) Brightness Sun altitude
Rises 20:17:19 0° 335° (NNW) 3,458 8.5 -12.7°
Reaches altitude 10° 20:19:48 10° 336° (NNW) 2,513 7.5 -13.0°
Maximum altitude 20:25:36 82° 64° (ENE) 871 3.7 -13.6°
Enters shadow 20:29:41 20° 152° (SSE) 1,873 4.9 -14.1°
